Millbury, OH

4:41 AM EST on December 11, 2016 (GMT -0500)
Metcalf

Weather History for KTDZ - April, 2013

Change the Weather History Date:

Monday, April 29, 2013

  Actual Average (KTOL) Record (KTOL)
Temperature  
Mean Temperature 61 °F -  
Max Temperature 70 °F 65 °F 87 °F (1889)
Min Temperature 53 °F 40 °F 25 °F (1874)
Degree Days  
Heating Degree Days 4    
Growing Degree Days 11 (Base 50)    
Moisture  
Dew Point 54 °F    
Average Humidity 85    
Maximum Humidity 100    
Minimum Humidity 57    
Precipitation  
Precipitation 0.00 in - - ()
Sea Level Pressure  
Sea Level Pressure 29.91 in    
Wind  
Wind Speed 6 mph (WSW)    
Max Wind Speed 12 mph    
Max Gust Speed -    
Visibility 8 miles    
Events      
Averages and records for this station are not official NWS values.
T = Trace of Precipitation, MM = Missing Value Source: NWS Daily Summary

Daily Weather History Graph

Daily Weather History Graph

Search for Another Location

Airport or City:

Trip Planner

Search our weather history database for the weather conditions in past years. The results will help you decide how hot, cold, wet, or windy it might be!

Date:

Astronomy

Apr. 29, 2013 Rise Set
Actual Time 6:33 AM EDT 8:29 PM EDT
Civil Twilight 6:03 AM EDT 9:00 PM EDT
Nautical Twilight 5:26 AM EDT 9:36 PM EDT
Astronomical Twilight 4:46 AM EDT 10:16 PM EDT
Moon No Moon Rise 9:51 AM EDT (4/29)
Length of Visible Light 14h 56m
Length of Day
13h 56m
Waning Gibbous, 80% of the Moon is Illuminated
Apr 29
Waning Gibbous
May 2
Last Quarter
May 9
New
May 18
First Quarter
May 25
Full

Hourly Weather History & Observations

Time (EDT) Temp. Dew Point Humidity Pressure Visibility Wind Dir Wind Speed Gust Speed Precip Events Conditions
12:04 AM 57.2 °F 55.4 °F 94% 29.85 in 2.5 mi SSW 5.8 mph - N/A   Overcast
12:16 AM 57.2 °F 55.4 °F 94% 29.85 in 3.0 mi WSW 4.6 mph - N/A   Overcast
12:30 AM 57.2 °F 55.4 °F 94% 29.85 in 3.0 mi SW 5.8 mph - N/A   Overcast
12:53 AM 57.0 °F 55.9 °F 96% 29.85 in 4.0 mi WSW 4.6 mph - N/A   Overcast
1:32 AM 57.2 °F 55.4 °F 94% 29.85 in 5.0 mi SW 6.9 mph - N/A   Overcast
1:53 AM 57.0 °F 55.9 °F 96% 29.85 in 6.0 mi SW 5.8 mph - N/A   Overcast
2:39 AM 57.2 °F 55.4 °F 94% 29.86 in 6.0 mi WSW 8.1 mph - N/A   Overcast
2:53 AM 57.0 °F 55.0 °F 93% 29.85 in 5.0 mi WSW 6.9 mph - N/A   Overcast
3:08 AM 57.2 °F 55.4 °F 94% 29.86 in 5.0 mi SW 6.9 mph - N/A   Overcast
3:16 AM 57.2 °F 55.4 °F 94% 29.86 in 5.0 mi SW 6.9 mph - N/A   Overcast
3:53 AM 57.0 °F 55.0 °F 93% 29.87 in 5.0 mi WSW 6.9 mph - N/A   Overcast
4:20 AM 57.2 °F 55.4 °F 94% 29.87 in 6.0 mi WSW 5.8 mph - N/A   Overcast
4:46 AM 57.2 °F 55.4 °F 94% 29.88 in 7.0 mi WSW 5.8 mph - N/A   Overcast
4:53 AM 55.9 °F 55.0 °F 97% 29.88 in 7.0 mi WSW 5.8 mph - N/A   Overcast
5:04 AM 55.4 °F 55.4 °F 100% 29.88 in 7.0 mi West 8.1 mph - N/A   Overcast
5:50 AM 55.4 °F 53.6 °F 94% 29.89 in 7.0 mi West 5.8 mph - N/A   Overcast
5:53 AM 55.9 °F 54.0 °F 93% 29.90 in 7.0 mi West 5.8 mph - N/A   Overcast
6:19 AM 53.6 °F 51.8 °F 94% 29.91 in 10.0 mi West 4.6 mph - N/A   Mostly Cloudy
6:29 AM 53.6 °F 51.8 °F 94% 29.91 in 10.0 mi West 3.5 mph - N/A   Mostly Cloudy
6:53 AM 53.1 °F 51.1 °F 93% 29.91 in 6.0 mi West 4.6 mph - N/A   Overcast
7:53 AM 55.0 °F 53.1 °F 93% 29.94 in 5.0 mi SW 4.6 mph - N/A   Overcast
8:27 AM 55.4 °F 53.6 °F 94% 29.94 in 5.0 mi SW 4.6 mph - N/A   Overcast
8:46 AM 55.4 °F 53.6 °F 94% 29.95 in 5.0 mi WSW 3.5 mph - N/A   Overcast
8:53 AM 55.9 °F 54.0 °F 93% 29.95 in 5.0 mi WSW 4.6 mph - N/A   Overcast
9:20 AM 57.2 °F 53.6 °F 88% 29.95 in 9.0 mi West 6.9 mph - N/A   Overcast
9:45 AM 57.2 °F 53.6 °F 88% 29.95 in 10.0 mi WSW 6.9 mph - N/A   Overcast
9:53 AM 57.9 °F 53.1 °F 84% 29.95 in 10.0 mi West 6.9 mph - N/A   Overcast
10:02 AM 57.2 °F 53.6 °F 88% 29.95 in 10.0 mi West 8.1 mph - N/A   Overcast
10:53 AM 60.1 °F 54.0 °F 80% 29.96 in 10.0 mi WNW 5.8 mph - N/A   Overcast
11:50 AM 62.6 °F 51.8 °F 68% 29.96 in 10.0 mi West 6.9 mph - N/A   Overcast
11:53 AM 62.1 °F 52.0 °F 70% 29.96 in 10.0 mi West 5.8 mph - N/A   Overcast
12:07 PM 62.6 °F 51.8 °F 68% 29.96 in 10.0 mi WSW 3.5 mph - N/A   Overcast
12:53 PM 63.0 °F 52.0 °F 67% 29.95 in 10.0 mi SSW 5.8 mph - N/A   Overcast
1:53 PM 64.9 °F 52.0 °F 63% 29.94 in 10.0 mi SW 8.1 mph - N/A   Mostly Cloudy
2:53 PM 66.0 °F 53.1 °F 63% 29.94 in 10.0 mi SW 5.8 mph - N/A   Overcast
3:53 PM 68.0 °F 53.1 °F 59% 29.92 in 10.0 mi SW 5.8 mph - N/A   Mostly Cloudy
4:53 PM 69.1 °F 53.1 °F 57% 29.91 in 10.0 mi SW 9.2 mph - N/A   Partly Cloudy
5:53 PM 69.1 °F 54.0 °F 58% 29.91 in 10.0 mi SSW 9.2 mph - N/A   Partly Cloudy
6:53 PM 66.9 °F 55.0 °F 66% 29.92 in 10.0 mi SSW 11.5 mph - N/A   Clear
7:53 PM 66.0 °F 54.0 °F 65% 29.92 in 10.0 mi SSW 10.4 mph - N/A   Clear
8:53 PM 62.1 °F 54.0 °F 75% 29.94 in 10.0 mi SSW 4.6 mph - N/A   Clear
9:53 PM 57.9 °F 53.1 °F 84% 29.94 in 10.0 mi South 5.8 mph - N/A   Clear
10:53 PM 57.0 °F 52.0 °F 83% 29.96 in 8.0 mi South 4.6 mph - N/A   Clear
11:53 PM 57.0 °F 53.1 °F 87% 29.97 in 8.0 mi South 5.8 mph - N/A   Clear